全球星 M048星 (GLOBALSTAR M048)

导读 | 星芒AI

GLOBALSTAR M048 是 Globalstar 卫星通信公司运营的一颗低轨移动通信卫星,属于其第二代卫星星座(Globalstar 2)的一部分。该卫星设计用于提供全球范围内的语音和数据通信服务,主要面向偏远地区和移动用户。它运行在约1414公里的近地轨道,采用先进的数字信号处理技术,以提高通信质量和系统容量。M048 卫星于2010年发射,是Globalstar实现其全球宽带和物联网通信战略的重要组成部分。

基本信息
目录编号:
25872
目录名称:
GLOBALSTAR M048
国际标识:
1999-041A
轨道中心:
EARTH
卫星名称:
全球星 M048星
卫星全名:
全球星 M048星 (GLOBALSTAR M048)
卫星状态:
在轨 (已飞行9641 天)
发射日期:
1999-07-25 UTC
国别 :
(GLOB)
星等 :
--
轨道信息
数据来源 国际轨道数据 AOE轨道数据
星历时间 2025-12-15T13:12:33+0800
20小时前
查看轨道信息
2025-12-13T23:00:00+0800
2天前
查看轨道信息
半长轴 8369.42km 8369.422km
偏心率 0.0013315 0.0013377
轨道倾角 51.937° 51.937°
近地点辐角 134.148° 132.090°
升交点赤经 266.212° 269.990°
平近点角 35.271° 15.989°
近地点 1980.141km 1980.091km
远地点 2002.429km 2002.483km
周期 127.000分钟 127.000分钟
每日圈数 11.338609 11.338605
详细信息
固有亮度:
5
最大亮度:
7.9
平衡模式:
三轴稳定
覆盖范围:
全球
运营商:
全球星公司
运营商所在国:
美国
使用方式:
暂无
卫星简介
全球星星座由48颗卫星加8颗备份星组成。这些卫星分布在8个倾角为52度的圆形轨道平面上,每个轨道平面6颗卫星,另有1 颗备用星。轨道高度约为1414km,传输时延和处理时延小于300ms,整个系统的覆盖区为南北纬70度以内的地区。该卫星已退役。
2D轨道图
3D轨道图
轨道高度分析图
轨道倾角分析图
轨道综合分析图
查看轨道综合分析图